Wetbulb
68.06 67.71 66.09 64.90 65.19 65.71 65.90 66.19 66.38 66.19 66.16 65.95 65.57 64.81 63.85 63.80 63.50 63.51 62.98 61.94 62.13 63.30 67.14 69.34 68.08 66.68 64.91 63.48 62.25 61.64 60.77 60.00 59.62 59.79 59.66 59.49 59.44 59.82 60.28 60.86 61.03 61.12 61.38
68.53 67.96 67.38 66.36 65.10 65.20 65.80 65.99 66.84 67.28 67.13 67.14 66.67 66.35 65.80 66.00 65.81 65.05 64.04 63.59 61.85 63.07 64.85 68.15 68.91 67.74 67.00 65.86 64.75 63.34 62.22 61.28 60.26 59.97 59.77 59.26 58.81 58.83 59.01 59.16 59.32 59.74 60.27
68.43 67.91 67.45 67.31 67.30 66.88 66.16 66.52 66.88 67.24 66.98 67.08 66.75 67.13 67.16 66.94 66.73 66.24 65.35 64.69 64.13 61.59 63.46 64.82 67.38 67.68 67.34 66.80 66.23 65.46 63.98 62.91 61.98 60.45 60.31 59.81 59.13 58.47 58.28 58.55 58.80 58.97 58.78
68.92 68.60 67.70 67.66 68.37 68.21 67.84 67.29 66.96 66.54 66.51 66.48 66.28 66.60 66.87 67.05 66.95 66.87 66.99 66.58 65.62 64.58 63.11 64.16 65.48 66.82 67.03 67.03 66.90 66.33 65.63 64.06 63.02 62.13 61.12 60.38 59.69 59.14 58.50 58.28 58.05 58.19 58.08
69.16 68.71 68.63 68.61 68.88 68.49 68.13 67.72 67.31 67.10 66.24 66.22 65.39 66.72 67.01 66.93 66.92 66.87 66.61 66.85 66.87 65.89 64.22 63.82 63.47 64.63 66.25 66.96 66.73 66.77 66.36 65.67 64.13 62.90 62.18 61.28 60.53 59.75 59.24 58.76 58.32 58.24 58.11
69.04 68.76 68.69 68.65 68.85 68.00 67.16 66.92 66.34 66.76 66.20 65.80 65.06 65.29 66.36 66.58 66.81 66.71 66.19 65.66 65.69 66.18 65.50 63.88 63.78 62.48 62.69 64.80 65.91 66.40 66.21 65.90 65.22 64.19 63.10 62.16 61.13 60.39 59.71 59.19 58.77 58.38 58.26
69.17 68.89 68.63 68.25 67.78 66.98 66.88 66.89 66.47 65.15 64.93 66.96 64.77 64.47 64.87 65.66 65.64 65.29 65.14 64.26 64.55 64.70 63.64 63.26 62.95 62.65 62.69 63.78 65.01 65.31 65.90 65.96 65.38 64.89 64.38 63.34 62.26 61.39 60.65 59.96 59.42 58.84 58.40
68.98 68.51 68.22 67.58 67.46 66.98 66.66 66.58 65.68 64.78 64.97 66.01 62.81 62.74 59.30 61.05 62.41 63.74 63.53 62.93 62.82 63.01 62.25 61.61 61.50 61.33 61.61 61.39 61.97 63.79 64.31 65.31 65.40 65.03 64.59 64.34 63.60 62.68 61.90 60.97 60.03 59.42 59.21
68.56 68.21 67.72 67.15 67.23 67.16 66.21 66.13 65.53 64.45 62.75 63.32 63.54 61.10 57.93 56.15 58.88 61.03 61.25 61.60 61.00 60.72 60.99 59.99 59.76 60.22 59.80 59.58 60.10 59.32 59.43 60.05 62.16 64.37 64.59 64.12 63.96 63.66 62.88 61.96 60.84 59.95 59.26
60.86 61.43 63.16 65.13 65.81 65.39 64.22 64.10 64.35 63.95 63.40 61.56 61.89 61.66 62.00 59.46 56.09 54.64 59.64 60.43 60.47 58.19 59.43 59.08 57.61 57.62 56.64 56.90 56.41 55.63 56.22 56.23 58.08 60.03 62.10 63.55 63.60 63.50 63.39 62.83 62.04 60.81 59.93
58.42 58.71 58.66 59.32 59.72 60.33 61.29 61.48 61.62 61.24 61.17 60.64 60.93 60.09 59.86 59.97 59.46 56.22 53.84 55.56 59.74 58.90 58.07 58.01 57.76 57.63 57.15 56.87 55.99 53.56 53.17 54.34 56.13 57.76 59.60 60.74 61.90 63.15 62.86 63.38 63.54 61.31 60.42
57.93 58.09 57.56 58.05 58.49 58.95 59.50 60.42 60.73 60.31 58.96 58.30 58.59 58.98 58.54 57.48 55.40 54.43 53.65 54.88 55.69 56.20 56.81 58.92 56.78 55.91 54.79 54.24 51.07 51.30 51.65 53.06 54.41 56.14 58.18 59.72 60.43 61.21 61.05 61.93 62.61 62.00 61.12
56.50 57.21 56.56 56.50 56.60 57.18 57.23 58.09 58.96 59.23 57.77 57.48 58.07 58.10 58.66 58.63 58.73 55.44 53.69 52.59 52.99 54.54 54.08 56.09 53.91 53.42 52.52 52.67 49.71 49.50 51.12 50.98 52.27 54.19 55.86 57.18 56.92 56.21 56.38 58.28 59.75 61.24 61.95
55.84 55.70 54.70 54.73 54.76 54.72 54.96 55.92 57.00 58.26 58.58 59.62 59.44 59.58 59.33 58.69 57.98 55.48 54.31 53.05 50.44 51.60 52.09 52.40 52.05 50.98 50.56 48.90 48.08 50.36 50.94 49.49 50.54 52.23 53.48 53.69 52.78 52.33 53.08 55.58 57.30 58.35 56.85
53.35 52.40 52.56 52.28 52.65 52.58 53.19 53.96 55.67 56.09 56.97 56.10 54.38 53.79 52.52 51.40 51.71 52.77 54.06 54.09 52.74 48.58 50.09 51.31 49.84 48.71 48.02 48.45 46.07 48.41 47.86 47.95 49.14 50.17 51.04 51.76 51.24 50.82 52.88 54.85 56.37 55.06 54.10
51.08 50.78 50.73 50.69 50.73 50.96 51.75 53.02 53.33 53.41 53.35 52.99 52.93 51.78 50.52 50.40 50.63 51.40 51.18 51.56 51.35 50.82 48.43 49.42 46.58 46.24 46.66 46.89 46.05 46.41 45.54 46.60 46.89 48.98 49.22 49.60 51.02 52.55 52.95 53.13 52.62 52.39 52.15
49.46 48.93 48.54 48.65 48.65 48.86 50.03 51.25 50.59 50.33 49.79 49.02 49.08 48.72 48.16 50.03 50.05 49.94 50.51 50.31 50.10 50.18 48.10 44.26 44.61 44.92 45.65 44.15 44.13 44.34 44.51 43.76 44.99 45.79 47.23 47.67 47.83 48.00 48.88 49.48 49.83 49.89 49.59
48.20 47.53 47.05 46.79 46.92 47.05 47.89 48.76 48.37 48.92 48.95 48.13 48.03 48.18 47.04 47.58 47.44 48.00 48.37 47.59 47.25 46.56 46.39 44.60 42.83 43.04 41.75 41.80 42.33 41.76 41.93 42.67 42.99 42.95 44.47 45.08 45.67 46.19 46.78 46.74 46.56 46.24 45.96
47.13 46.51 45.78 45.31 44.88 44.71 45.48 45.91 46.25 45.97 45.78 45.32 45.21 44.54 44.31 45.37 44.30 44.63 44.69 44.42 43.84 43.27 43.25 41.98 39.54 41.41 40.60 39.05 38.46 39.95 40.53 40.41 41.75 40.78 41.20 41.99 42.40 43.50 44.08 44.22 44.18 43.65 44.70
46.02 45.69 45.13 44.09 43.15 42.81 42.77 42.83 43.44 43.54 42.81 42.42 42.38 42.56 42.08 42.01 41.74 41.64 41.33 41.20 41.40 41.21 41.26 41.17 39.80 39.09 38.05 38.01 38.08 36.77 38.40 39.89 38.55 39.21 39.50 38.42 38.94 39.10 40.27 40.69 40.31 39.21 39.65
44.58 43.96 42.69 42.11 41.98 41.49 41.17 41.16 41.43 41.42 40.86 40.13 40.10 39.55 40.40 41.06 41.01 40.98 40.08 39.51 39.43 38.68 38.17 38.90 38.79 38.59 37.02 36.48 35.03 36.29 34.45 35.15 36.65 35.15 33.97 35.50 34.97 35.93 36.74 37.72 37.45 36.83 37.55
41.78 41.52 41.08 40.93 40.59 40.62 40.64 40.83 40.62 39.78 39.61 39.01 37.76 37.85 37.80 38.36 38.71 38.81 38.62 37.96 36.68 36.58 34.87 35.19 35.81 35.36 35.39 34.05 34.10 32.00 31.22 30.28 29.88 33.37 30.36 30.22 32.73 31.26 32.71 32.79 35.43 35.33 35.98
40.11 39.61 39.63 39.87 39.56 39.53 40.51 39.61 39.66 38.48 36.42 35.98 34.97 35.56 34.53 33.98 34.07 33.38 34.54 34.62 36.16 35.82 35.52 34.70 32.12 31.91 31.33 31.91 31.42 31.10 30.62 29.95 29.14 31.12 29.39 27.48 30.72 29.00 31.42 33.89 35.06 34.95 36.14
38.77 38.29 38.51 39.36 38.85 38.54 38.38 37.11 36.20 34.41 33.21 32.98 33.16 33.06 34.09 34.13 33.47 32.88 32.47 32.07 32.48 33.81 34.07 34.35 33.65 33.11 33.01 33.49 32.56 31.78 30.35 29.80 30.68 30.70 29.47 25.49 29.54 28.71 31.12 31.82 33.90 34.66 35.53
36.76 36.37 37.20 37.79 37.03 36.93 36.58 34.68 33.46 33.41 32.45 32.08 32.98 33.87 34.56 34.94 34.70 33.23 32.05 29.74 29.91 31.30 33.26 32.42 31.77 31.65 31.73 31.94 32.11 30.60 29.56 27.73 26.37 26.45 28.68 26.56 28.18 27.49 29.27 29.56 31.03 34.05 34.38
34.46 35.07 34.10 34.97 36.24 36.19 35.23 34.09 33.31 31.95 30.66 30.35 31.30 32.67 33.54 34.02 33.73 33.74 31.67 29.77 27.61 28.87 29.91 29.80 29.24 28.99 29.15 29.02 30.01 28.29 28.51 24.99 26.52 26.36 27.46 25.99 27.15 27.03 25.47 30.09 29.68 30.71 30.40
MSLP
1018.40 1018.39 1018.45 1018.63 1018.76 1018.88 1018.96 1019.01 1019.18 1019.18 1019.27 1019.27 1019.33 1019.43 1019.52 1019.47 1019.38 1019.39 1019.55 1019.88 1020.12 1020.32 1020.34 1020.18 1020.29 1020.52 1020.77 1021.00 1021.21 1021.34 1021.53 1021.72 1021.81 1021.87 1021.88 1021.85 1021.78 1021.72 1021.65 1021.70 1021.66 1021.60 1021.66
1018.21 1018.43 1018.37 1018.61 1018.71 1018.85 1018.91 1018.98 1018.95 1019.01 1019.08 1019.03 1019.05 1019.03 1019.10 1019.14 1019.22 1019.31 1019.39 1019.46 1019.80 1019.97 1020.13 1020.08 1020.02 1020.12 1020.38 1020.48 1020.75 1020.97 1021.25 1021.51 1021.72 1021.79 1021.86 1021.89 1021.90 1021.88 1021.87 1021.84 1021.82 1021.83 1021.85
1018.03 1018.24 1018.35 1018.35 1018.55 1018.68 1018.81 1018.85 1018.97 1019.02 1019.09 1018.99 1018.98 1018.76 1018.71 1018.74 1018.79 1018.92 1019.15 1019.23 1019.29 1019.60 1019.68 1019.78 1019.77 1019.83 1019.92 1020.03 1020.20 1020.42 1020.66 1020.95 1021.28 1021.63 1021.69 1021.81 1021.87 1021.94 1021.95 1021.95 1021.93 1021.96 1022.04
1017.86 1017.98 1018.13 1018.26 1018.36 1018.50 1018.71 1018.79 1018.89 1018.90 1018.89 1018.86 1018.70 1018.45 1018.22 1018.32 1018.54 1018.62 1018.65 1018.69 1018.83 1018.90 1019.15 1019.24 1019.36 1019.51 1019.55 1019.61 1019.72 1019.88 1020.20 1020.47 1020.64 1020.89 1021.27 1021.48 1021.64 1021.79 1021.87 1021.96 1022.00 1022.06 1022.10
1017.55 1017.76 1017.85 1017.94 1018.07 1018.27 1018.42 1018.58 1018.64 1018.68 1018.65 1018.58 1018.53 1018.38 1018.22 1018.21 1018.13 1018.11 1018.12 1018.14 1018.16 1018.39 1018.67 1018.67 1018.93 1019.12 1019.26 1019.30 1019.38 1019.41 1019.60 1019.92 1020.29 1020.53 1020.79 1021.02 1021.25 1021.49 1021.68 1021.79 1021.86 1021.92 1022.08
1017.40 1017.52 1017.51 1017.67 1017.79 1017.98 1018.20 1018.33 1018.46 1018.54 1018.61 1018.55 1018.58 1018.39 1018.24 1018.14 1017.97 1017.87 1017.73 1017.64 1017.76 1017.89 1018.13 1018.42 1018.58 1018.75 1018.83 1018.96 1019.14 1019.20 1019.21 1019.35 1019.79 1020.12 1020.43 1020.74 1020.97 1021.17 1021.39 1021.55 1021.73 1021.87 1021.98
1017.06 1017.34 1017.46 1017.44 1017.68 1017.99 1018.09 1018.10 1018.20 1018.42 1018.53 1018.54 1018.66 1018.41 1018.10 1017.84 1017.58 1017.56 1017.48 1017.49 1017.43 1017.65 1018.02 1018.11 1018.22 1018.31 1018.28 1018.56 1018.72 1018.93 1019.03 1018.99 1019.24 1019.56 1019.82 1020.13 1020.45 1020.75 1020.96 1021.20 1021.34 1021.52 1021.74
1017.05 1017.22 1017.38 1017.55 1017.48 1017.91 1018.05 1018.09 1018.11 1018.21 1018.29 1018.41 1018.64 1018.55 1018.16 1017.75 1017.11 1016.93 1017.33 1017.45 1017.61 1017.61 1017.74 1017.99 1018.08 1018.08 1018.22 1018.33 1018.43 1018.66 1018.87 1018.92 1018.97 1019.10 1019.31 1019.56 1019.73 1019.89 1020.22 1020.61 1020.90 1021.12 1021.40
1017.00 1017.27 1017.60 1017.85 1017.96 1018.11 1018.21 1018.31 1018.46 1018.59 1018.61 1018.58 1018.70 1019.03 1018.51 1017.83 1017.39 1017.33 1017.53 1017.57 1017.69 1017.78 1017.69 1018.07 1018.17 1018.12 1018.33 1018.42 1018.47 1018.77 1019.08 1019.18 1019.06 1018.97 1018.88 1018.94 1019.13 1019.35 1019.73 1019.96 1020.30 1020.58 1020.91
1017.52 1017.62 1017.70 1017.88 1018.05 1018.18 1018.33 1018.50 1018.58 1018.62 1018.63 1018.57 1018.71 1018.72 1018.69 1018.82 1018.52 1017.92 1017.54 1017.67 1017.71 1017.99 1018.04 1018.14 1018.44 1018.50 1018.62 1018.82 1019.06 1019.29 1019.42 1019.53 1019.28 1019.09 1018.93 1018.63 1018.54 1018.74 1018.97 1019.41 1019.58 1019.70 1020.04
1017.66 1017.83 1017.93 1017.96 1018.03 1017.97 1018.10 1018.27 1018.38 1018.48 1018.54 1018.54 1018.50 1018.47 1018.52 1018.68 1018.75 1018.77 1018.11 1018.08 1017.99 1018.26 1018.44 1018.34 1018.30 1018.34 1018.52 1018.73 1019.05 1019.55 1019.71 1019.66 1019.45 1019.21 1018.89 1018.66 1018.41 1018.13 1018.27 1018.57 1018.69 1019.19 1019.35
1017.54 1017.81 1018.08 1018.09 1018.01 1017.96 1018.07 1018.07 1018.14 1018.29 1018.46 1018.44 1018.44 1018.42 1018.26 1018.32 1018.51 1018.59 1018.70 1018.44 1018.42 1018.44 1018.14 1017.90 1018.18 1018.70 1019.06 1019.25 1019.92 1020.08 1020.02 1019.82 1019.69 1019.34 1019.10 1018.70 1018.44 1018.49 1018.37 1018.14 1018.42 1018.14 1018.55
1017.42 1017.74 1018.11 1018.12 1018.05 1018.03 1018.11 1018.05 1018.06 1018.11 1018.33 1018.26 1018.10 1018.10 1018.06 1017.98 1018.06 1018.41 1018.55 1018.66 1018.58 1018.62 1018.45 1018.42 1018.83 1019.19 1019.46 1019.50 1020.11 1020.37 1020.23 1020.08 1019.88 1019.58 1019.38 1019.11 1018.92 1018.92 1018.87 1018.57 1018.37 1017.95 1018.08
1017.42 1017.80 1018.16 1018.16 1018.13 1018.18 1018.10 1018.00 1018.03 1018.01 1018.13 1018.02 1017.82 1017.76 1017.73 1017.81 1018.02 1018.15 1018.28 1018.50 1018.66 1018.61 1018.69 1018.66 1019.20 1019.58 1020.03 1020.56 1020.72 1020.39 1020.20 1020.26 1020.08 1019.84 1019.51 1019.30 1019.19 1019.15 1018.98 1018.64 1018.34 1018.29 1018.48
1017.91 1018.10 1018.27 1018.42 1018.35 1018.30 1018.19 1018.15 1018.08 1018.03 1018.06 1018.30 1018.25 1018.27 1018.16 1018.32 1018.28 1018.40 1018.35 1018.27 1018.41 1018.74 1018.81 1018.68 1019.49 1020.26 1020.60 1020.68 1021.20 1020.73 1020.68 1020.72 1020.41 1020.12 1019.82 1019.38 1018.98 1019.07 1018.89 1018.59 1018.44 1018.71 1019.09
1018.30 1018.30 1018.38 1018.61 1018.72 1018.67 1018.40 1018.26 1018.18 1018.32 1018.44 1018.60 1018.41 1018.61 1018.60 1018.61 1018.55 1018.71 1018.66 1018.77 1018.90 1018.98 1019.19 1019.41 1020.12 1020.66 1020.84 1020.61 1020.95 1020.94 1021.11 1020.95 1020.92 1020.44 1020.43 1020.07 1019.59 1019.21 1019.20 1019.24 1019.29 1019.45 1019.61
1018.55 1018.61 1018.58 1018.71 1018.81 1018.88 1018.75 1018.46 1018.63 1018.57 1018.75 1018.89 1018.81 1018.78 1018.80 1018.74 1018.70 1018.88 1019.17 1019.05 1019.30 1019.39 1019.62 1020.19 1020.54 1020.95 1020.73 1020.81 1021.00 1021.22 1021.26 1021.27 1021.14 1021.06 1020.84 1020.59 1020.46 1020.34 1020.27 1020.06 1020.00 1020.07 1020.25
1018.61 1018.90 1018.97 1018.91 1018.92 1019.09 1019.09 1018.78 1018.94 1018.83 1018.68 1018.87 1019.04 1018.94 1019.01 1019.08 1019.26 1019.24 1019.49 1019.27 1019.65 1019.75 1019.89 1020.16 1020.74 1021.17 1021.35 1021.41 1021.30 1021.45 1021.42 1021.40 1021.40 1021.39 1021.18 1021.08 1020.89 1020.76 1020.68 1020.65 1020.65 1020.71 1020.80
1018.59 1018.90 1019.25 1019.25 1019.24 1019.21 1019.33 1019.37 1019.32 1019.23 1019.19 1019.17 1019.68 1019.62 1019.59 1019.51 1019.77 1019.85 1020.04 1020.08 1020.25 1020.51 1020.64 1020.68 1021.21 1021.50 1021.75 1021.84 1021.93 1021.73 1021.51 1021.59 1021.36 1021.52 1021.39 1021.28 1021.22 1021.06 1020.93 1020.95 1021.01 1021.14 1021.12
1018.77 1018.98 1019.30 1019.66 1019.81 1019.76 1019.87 1019.82 1020.02 1019.96 1019.92 1019.88 1020.29 1020.43 1020.53 1020.41 1020.49 1020.72 1020.55 1020.89 1020.84 1020.90 1020.96 1021.06 1021.48 1021.76 1021.98 1022.17 1022.15 1021.97 1021.49 1021.38 1021.39 1021.37 1021.31 1021.37 1021.31 1021.27 1021.24 1021.27 1021.32 1021.39 1021.42
1018.95 1019.41 1019.61 1019.95 1020.13 1020.20 1020.21 1020.21 1020.18 1020.47 1020.52 1020.51 1020.86 1021.10 1021.18 1021.25 1021.12 1021.28 1020.93 1021.18 1021.19 1021.34 1021.51 1021.59 1021.63 1021.89 1021.84 1022.08 1022.10 1022.12 1022.03 1021.76 1021.53 1021.86 1021.77 1021.27 1021.27 1021.19 1021.11 1021.14 1021.30 1021.45 1021.57
1019.46 1019.62 1019.84 1020.14 1020.27 1020.29 1020.36 1020.36 1020.56 1020.46 1020.69 1021.06 1021.11 1021.62 1021.48 1021.64 1021.96 1021.75 1021.61 1021.83 1021.91 1021.64 1021.98 1022.01 1021.96 1021.95 1021.93 1022.51 1022.27 1022.54 1022.59 1022.44 1022.17 1022.19 1022.13 1021.75 1021.32 1021.49 1021.28 1021.26 1021.48 1021.67 1021.64
1019.86 1019.91 1019.94 1020.13 1020.47 1020.58 1020.63 1020.66 1020.66 1020.73 1021.41 1021.93 1022.02 1021.65 1021.90 1022.52 1022.62 1022.32 1022.11 1022.26 1022.00 1022.14 1022.17 1022.22 1022.03 1021.92 1022.00 1022.65 1023.17 1023.16 1023.00 1023.03 1022.76 1022.47 1022.60 1022.01 1021.57 1021.61 1021.28 1021.25 1021.46 1021.61 1021.44
1019.80 1020.24 1020.19 1020.42 1020.74 1020.82 1021.18 1021.19 1021.35 1021.19 1021.65 1022.14 1022.47 1022.23 1022.38 1022.68 1022.71 1022.41 1022.28 1022.36 1022.10 1022.36 1022.45 1022.34 1022.57 1022.33 1022.57 1022.80 1023.00 1023.17 1023.26 1023.08 1022.78 1022.52 1022.81 1022.55 1021.85 1021.81 1021.47 1021.25 1021.39 1021.50 1021.43
1020.05 1020.47 1020.52 1020.74 1020.95 1021.00 1021.46 1021.66 1021.69 1021.45 1021.78 1022.30 1022.42 1022.30 1022.26 1022.32 1022.58 1022.57 1022.41 1022.48 1022.36 1022.58 1022.97 1022.94 1023.01 1022.81 1023.04 1023.22 1023.35 1023.41 1023.29 1023.22 1022.98 1022.56 1022.71 1022.93 1022.35 1022.16 1021.65 1021.28 1021.23 1021.36 1021.34
1020.28 1020.61 1020.87 1020.98 1021.06 1021.32 1021.47 1021.74 1021.73 1021.32 1021.97 1022.17 1022.17 1022.25 1022.33 1022.25 1022.42 1022.56 1022.48 1022.51 1022.48 1022.53 1022.68 1022.73 1022.86 1022.81 1022.96 1023.07 1023.39 1023.46 1023.46 1023.62 1023.42 1023.07 1023.11 1023.31 1023.02 1022.77 1022.28 1021.28 1021.16 1021.07 1021.05
Wind_Speed
4 4 4 4 4 4 4 4 4 4 5 5 5 5 6 6 6 3 3 8 5 6 7 10 9 7 5 4 3 2 2 1 2 2 2 2 3 3 4 5 5 6 6
4 4 4 4 4 4 4 5 5 4 4 5 5 6 6 5 6 6 4 3 9 8 9 10 10 9 9 9 9 7 6 4 3 4 3 2 2 2 2 2 3 3 5
6 5 5 4 4 4 6 5 5 5 5 5 7 6 6 6 6 6 5 5 4 9 11 12 12 12 12 10 11 11 11 11 9 6 6 5 4 2 1 1 1 2 2
7 6 5 5 5 4 5 5 5 5 6 6 6 6 6 6 8 8 7 6 5 5 9 12 13 14 14 14 14 13 13 14 13 13 10 8 7 6 5 3 2 1 0
8 7 5 5 6 5 5 6 6 6 6 6 6 6 6 6 7 6 9 8 8 5 4 6 12 12 12 15 15 15 15 15 15 14 14 13 12 10 9 7 6 5 4
7 7 6 7 6 5 6 7 8 6 6 5 6 7 6 6 6 7 8 7 6 6 4 6 4 7 13 15 17 17 17 15 15 16 15 14 13 12 12 11 9 8 7
7 7 6 6 5 7 8 8 7 6 5 6 5 6 7 9 8 6 5 6 6 2 4 4 4 4 4 13 13 15 18 18 15 15 18 18 16 16 15 14 13 12 11
7 7 7 7 4 4 9 8 8 6 5 3 2 4 3 6 6 5 2 3 4 4 2 3 4 4 3 3 3 10 12 17 18 17 16 18 20 20 19 17 16 14 14
5 4 4 4 4 3 4 4 3 3 4 2 4 3 3 4 3 3 4 3 4 3 1 2 3 3 3 4 4 6 9 8 11 16 18 17 18 19 20 19 18 17 16
3 3 4 5 4 3 3 4 4 4 4 6 1 3 5 1 3 3 2 3 2 3 3 1 1 2 3 2 2 6 10 10 10 12 15 18 18 17 18 21 23 20 19
2 1 3 3 4 3 4 5 5 6 4 5 6 4 5 5 7 5 5 3 2 1 1 1 1 1 4 4 5 9 10 9 10 10 12 15 17 20 17 18 20 22 21
3 2 1 3 3 4 5 4 5 5 6 7 7 6 7 4 4 3 5 5 3 3 2 0 4 4 4 4 8 8 9 10 10 11 12 13 13 15 16 14 19 26 25
3 3 2 3 3 4 5 5 5 5 7 7 8 6 6 6 4 1 2 2 4 3 1 3 4 4 3 5 7 10 8 12 12 13 13 14 15 14 14 14 16 15 21
1 1 3 4 4 5 6 6 5 5 6 5 6 6 5 3 3 4 3 4 2 3 2 2 3 4 4 4 8 9 5 12 12 14 15 13 12 12 12 11 9 7 7
1 2 3 4 4 5 6 6 5 5 1 2 3 3 2 2 3 3 2 0 2 3 5 2 3 4 3 3 6 5 7 9 11 14 18 15 9 8 9 2 9 14 15
2 2 3 4 4 5 4 4 4 2 2 2 1 3 2 2 3 2 2 1 1 0 2 3 4 3 2 2 5 6 6 6 9 13 14 17 20 14 13 15 15 13 14
2 3 2 3 3 4 4 3 2 1 1 1 2 2 3 2 2 2 2 2 1 1 3 1 2 1 1 5 5 5 4 4 3 11 11 12 13 13 14 13 11 10 8
1 3 3 3 3 3 4 3 0 1 1 1 2 3 3 2 4 2 1 2 1 3 3 2 3 3 3 4 4 4 3 3 4 8 8 8 9 9 9 8 7 5 3
3 2 3 3 2 2 2 3 1 2 3 5 4 4 4 3 4 4 4 4 3 3 2 2 2 2 1 4 3 3 3 3 2 3 4 4 6 8 5 4 5 7 7
3 3 1 2 2 2 1 1 1 3 5 6 6 6 7 6 5 4 4 3 2 1 1 2 2 1 1 1 1 2 2 1 2 4 1 1 2 1 2 3 3 4 4
2 0 1 1 2 2 1 2 4 4 5 7 7 7 8 9 11 7 4 3 3 2 2 0 0 1 1 1 2 2 3 3 1 3 4 3 1 3 1 1 1 2 7
2 3 3 2 2 1 5 4 4 5 5 6 6 5 5 7 6 6 8 10 6 3 2 2 1 2 3 3 1 3 3 3 2 3 4 4 2 3 3 3 7 8 9
3 3 2 3 1 2 5 6 5 5 5 3 3 3 4 3 4 2 5 4 7 7 7 4 3 3 3 4 2 4 4 3 3 4 4 4 3 4 2 3 4 7 8
4 3 2 3 3 3 5 7 8 5 5 4 3 3 4 3 2 2 2 1 3 3 4 3 4 5 4 4 1 1 3 3 4 2 2 2 2 3 3 3 3 3 7
4 3 2 3 3 4 7 7 6 4 4 4 3 3 1 3 4 3 2 0 2 3 3 2 2 3 2 3 4 3 2 2 3 1 2 2 3 4 4 2 2 3 6
4 4 3 3 4 2 7 7 5 3 3 3 3 3 1 3 2 1 4 2 2 1 1 2 2 3 3 3 1 3 2 1 2 2 3 2 4 3 4 1 1 3 2
Wind_Direction
185 204 200 199 211 218 231 231 238 248 241 251 253 251 264 273 272 273 285 167 197 246 255 232 223 209 213 219 244 239 262 312 320 320 330 3 14 19 33 35 41 51 47
212 216 211 216 222 225 232 237 245 236 251 245 257 260 261 260 263 272 262 235 196 219 242 245 247 236 224 216 213 218 214 233 263 271 269 279 306 333 0 19 34 56 68
219 225 244 224 219 225 236 243 255 258 265 266 263 264 264 269 271 256 252 256 222 207 222 237 241 245 242 237 234 225 209 203 208 239 242 245 248 251 275 331 53 64 89
217 224 227 232 243 231 232 240 244 250 251 260 267 267 256 240 258 264 266 255 239 255 203 220 227 239 246 249 248 243 225 217 211 205 221 226 229 225 227 214 207 149 241
216 218 229 229 230 234 242 243 249 253 264 268 274 273 277 281 271 266 261 255 250 232 255 223 211 221 237 247 253 251 246 228 220 218 216 215 216 220 221 216 204 193 183
222 229 234 240 247 241 246 251 253 257 258 265 273 278 275 266 268 263 270 285 284 258 251 255 221 218 219 233 244 251 257 249 236 224 222 224 225 220 220 219 214 208 202
230 233 247 250 245 253 259 258 261 253 252 262 274 268 259 252 243 258 273 268 265 260 250 253 247 259 244 216 229 243 255 261 257 242 232 225 223 225 221 220 217 211 209
241 248 248 254 257 259 263 267 268 266 274 276 253 293 281 269 260 220 254 311 299 299 248 256 267 275 278 297 252 228 250 263 267 267 255 243 234 224 220 220 219 217 215
261 298 317 322 302 309 272 295 345 304 251 238 221 231 277 248 347 132 204 221 266 268 295 357 304 332 335 330 340 8 23 345 304 287 279 271 261 245 229 222 218 215 218
259 266 262 246 235 231 244 258 261 245 238 249 227 245 243 134 263 298 238 269 252 317 255 128 311 344 42 24 4 26 14 346 319 301 292 286 282 271 247 223 225 212 212
213 224 267 281 276 282 284 281 272 257 258 260 249 247 216 233 229 230 264 269 243 137 229 285 291 28 45 39 35 42 11 356 345 329 313 301 290 286 268 256 228 220 219
181 197 285 280 295 283 282 280 277 270 261 260 260 263 253 221 218 205 227 231 247 300 339 159 58 50 53 51 65 8 22 18 2 352 333 318 313 347 353 291 251 221 217
201 213 284 285 290 297 290 285 283 266 269 259 248 242 245 251 236 185 151 185 217 230 237 57 65 64 59 38 55 358 55 27 14 1 346 332 332 338 341 331 325 286 240
291 14 292 294 297 299 293 289 281 274 274 282 288 293 261 252 197 178 194 161 200 224 207 247 81 71 50 32 28 339 62 27 23 10 348 323 314 321 320 310 322 36 55
309 313 302 308 307 303 298 289 282 287 1 341 36 21 57 36 59 34 348 192 188 178 210 162 130 78 46 41 21 17 27 26 30 26 23 7 328 307 308 310 114 110 92
262 283 299 304 306 298 294 285 273 336 332 24 42 120 90 88 77 64 83 98 59 319 224 14 72 66 57 78 60 31 21 28 21 33 29 33 40 53 69 83 91 93 101
279 282 297 300 309 311 309 294 266 285 178 138 81 86 81 74 84 73 39 39 67 257 242 98 91 64 68 27 32 12 17 14 3 20 15 26 36 41 46 54 65 77 85
264 310 301 291 304 324 320 331 339 328 208 113 79 81 66 58 77 65 116 98 73 31 335 241 51 37 26 8 20 3 1 9 1 10 1 10 21 29 40 48 47 45 38
240 245 285 291 296 343 338 3 13 81 84 70 44 58 52 71 72 61 38 51 40 32 33 38 109 60 51 37 359 359 345 11 344 344 359 1 360 18 18 20 53 53 50
227 220 267 323 334 324 13 68 49 81 80 76 66 50 53 58 69 63 77 63 60 56 58 91 76 107 37 62 313 349 322 186 53 0 288 128 341 248 18 9 39 32 14
189 181 171 227 268 254 216 148 126 121 113 100 90 78 64 69 69 53 60 53 52 43 13 337 23 230 299 267 341 315 308 346 118 36 335 326 1 340 150 235 165 54 345
164 165 174 182 216 196 150 144 144 129 123 127 108 88 83 56 59 65 74 63 43 39 88 5 245 273 68 339 360 26 349 3 343 78 358 316 3 328 339 4 14 339 321
166 159 155 146 133 132 127 121 115 99 88 76 99 83 83 81 74 93 96 88 78 61 53 315 339 58 31 54 44 330 12 333 315 351 3 306 21 319 345 336 48 331 319
156 149 145 147 147 131 129 116 111 89 97 95 107 123 140 162 104 101 94 117 69 76 40 18 17 50 43 21 360 190 312 303 279 180 43 272 352 318 332 306 87 334 334
129 128 143 127 110 136 149 136 113 128 116 144 187 203 194 164 118 38 62 42 218 136 134 75 48 51 14 337 315 319 305 345 292 147 99 326 316 319 303 288 146 239 289
128 135 113 98 161 161 166 167 177 119 171 187 167 140 158 359 99 167 319 322 294 55 78 301 210 186 199 156 285 271 335 270 306 294 87 337 355 4 322 308 290 276 317